^^
Station Historical Data
Daily Summary for October 27, 2021 Units:  English    Metric   Both
Daily Weekly Monthly Yearly
  High: Low: Average:
Temperature: 50.9 °F 48.8 °F 49.8 °F
Dew Point: 47.5 °F 42.6 °F 45.1 °F
Humidity: 89% 79% 84%
Wind Speed: 4mph 1mph 2.5mph
Wind Gust: 7mph - -
Wind- - East
Pressure: 30.05 in 29.99 in -
Precipitation: 0.00 in    
 
 
Tabular Data for October 27, 2021
Time Temperature Dew Point Pressure Wind Wind Speed Wind Gust Humidity Rainfall Rate (Hourly) solar
00:00 48.8 °F 42.6 °F 29.99 in ENE 3 mph 3 mph 79% 0.00 in 0 W/m2
00:05 48.8 °F 42.6 °F 29.99 in North 3 mph 4 mph 79% 0.00 in 0 W/m2
00:10 48.8 °F 42.6 °F 29.99 in East 3 mph 5 mph 79% 0.00 in 0 W/m2
00:15 48.8 °F 42.6 °F 29.99 in North 3 mph 5 mph 79% 0.00 in 0 W/m2
00:20 48.8 °F 42.6 °F 29.99 in ENE 4 mph 4 mph 79% 0.00 in 0 W/m2
00:25 48.8 °F 42.6 °F 29.99 in East 4 mph 4 mph 79% 0.00 in 0 W/m2
00:30 48.8 °F 42.6 °F 29.99 in NNE 3 mph 6 mph 79% 0.00 in 0 W/m2
00:35 48.8 °F 42.6 °F 29.99 in NE 3 mph 6 mph 79% 0.00 in 0 W/m2
00:40 48.8 °F 42.6 °F 29.99 in SE 3 mph 3 mph 79% 0.00 in 0 W/m2
00:45 48.8 °F 42.6 °F 29.99 in NW 3 mph 3 mph 79% 0.00 in 0 W/m2
00:50 48.9 °F 42.7 °F 30.00 in NNE 3 mph 3 mph 79% 0.00 in 0 W/m2
00:55 48.8 °F 42.6 °F 30.00 in East 3 mph 3 mph 79% 0.00 in 0 W/m2
01:00 48.9 °F 43 °F 30.00 in NE 3 mph 3 mph 80% 0.00 in 0 W/m2
01:05 48.9 °F 42.7 °F 30.00 in ENE 3 mph 3 mph 79% 0.00 in 0 W/m2
01:10 49 °F 42.8 °F 30.00 in NE 3 mph 3 mph 79% 0.00 in 0 W/m2
01:15 49 °F 42.8 °F 30.00 in NNW 4 mph 4 mph 79% 0.00 in 0 W/m2
01:20 49 °F 42.8 °F 30.00 in ENE 3 mph 3 mph 79% 0.00 in 0 W/m2
01:25 49 °F 42.8 °F 30.00 in ENE 3 mph 3 mph 79% 0.00 in 0 W/m2
01:30 49 °F 42.8 °F 30.00 in NE 3 mph 3 mph 79% 0.00 in 0 W/m2
01:35 49.1 °F 42.9 °F 30.00 in NNW 3 mph 5 mph 79% 0.00 in 0 W/m2
01:40 49.2 °F 43 °F 30.00 in NE 3 mph 5 mph 79% 0.00 in 0 W/m2
01:45 49.1 °F 42.9 °F 30.00 in NNW 3 mph 5 mph 79% 0.00 in 0 W/m2
01:50 49.2 °F 43 °F 30.00 in NNE 3 mph 3 mph 79% 0.00 in 0 W/m2
01:55 49.2 °F 43 °F 30.00 in SSE 3 mph 3 mph 79% 0.00 in 0 W/m2
02:00 49.2 °F 43 °F 30.00 in NW 3 mph 5 mph 79% 0.00 in 0 W/m2
02:05 49.3 °F 43.1 °F 29.99 in NNE 3 mph 5 mph 79% 0.00 in 0 W/m2
02:10 49.3 °F 43.1 °F 29.99 in East 3 mph 4 mph 79% 0.00 in 0 W/m2
02:15 49.3 °F 43.1 °F 30.00 in NE 3 mph 4 mph 79% 0.00 in 0 W/m2
02:20 49.3 °F 43.4 °F 30.00 in East 3 mph 3 mph 80% 0.00 in 0 W/m2
02:25 49.3 °F 43.4 °F 29.99 in NE 3 mph 3 mph 80% 0.00 in 0 W/m2
02:30 49.4 °F 43.5 °F 30.00 in NNE 3 mph 3 mph 80% 0.00 in 0 W/m2
02:35 49.4 °F 43.5 °F 30.00 in NE 3 mph 5 mph 80% 0.00 in 0 W/m2
02:40 49.4 °F 43.5 °F 30.00 in ESE 3 mph 3 mph 80% 0.00 in 0 W/m2
02:45 49.4 °F 43.5 °F 30.00 in West 3 mph 3 mph 80% 0.00 in 0 W/m2
02:50 49.5 °F 43.6 °F 30.00 in NW 3 mph 3 mph 80% 0.00 in 0 W/m2
02:55 49.5 °F 43.6 °F 30.00 in NNE 3 mph 3 mph 80% 0.00 in 0 W/m2
03:00 49.5 °F 43.6 °F 30.00 in NE 3 mph 3 mph 80% 0.00 in 0 W/m2
03:05 49.5 °F 43.6 °F 30.00 in NE 3 mph 5 mph 80% 0.00 in 0 W/m2
03:10 49.5 °F 43.9 °F 30.00 in ESE 3 mph 3 mph 81% 0.00 in 0 W/m2
03:15 49.5 °F 43.9 °F 30.00 in ENE 3 mph 3 mph 81% 0.00 in 0 W/m2
03:20 49.5 °F 43.6 °F 30.00 in East 2 mph 3 mph 80% 0.00 in 0 W/m2
03:25 49.6 °F 44 °F 30.00 in ENE 3 mph 5 mph 81% 0.00 in 0 W/m2
03:30 49.6 °F 44 °F 30.00 in NE 3 mph 3 mph 81% 0.00 in 0 W/m2
03:40 49.6 °F 44 °F 30.00 in NNW 3 mph 4 mph 81% 0.00 in 0 W/m2
03:45 49.6 °F 44 °F 30.00 in NE 3 mph 4 mph 81% 0.00 in 0 W/m2
03:50 49.6 °F 44 °F 30.00 in East 2 mph 3 mph 81% 0.00 in 0 W/m2
03:55 49.6 °F 44 °F 30.00 in East 2 mph 3 mph 81% 0.00 in 0 W/m2
04:00 49.6 °F 44 °F 30.00 in NE 3 mph 3 mph 81% 0.00 in 0 W/m2
04:05 49.7 °F 44.1 °F 30.00 in NNE 3 mph 5 mph 81% 0.00 in 0 W/m2
04:10 49.7 °F 44.1 °F 30.00 in ESE 3 mph 3 mph 81% 0.00 in 0 W/m2
04:15 49.8 °F 44.2 °F 30.00 in NW 3 mph 3 mph 81% 0.00 in 0 W/m2
04:20 49.8 °F 44.2 °F 30.00 in ESE 3 mph 3 mph 81% 0.00 in 0 W/m2
04:25 49.8 °F 44.2 °F 30.00 in North 3 mph 3 mph 81% 0.00 in 0 W/m2
04:30 49.9 °F 44.6 °F 30.01 in NE 3 mph 4 mph 82% 0.00 in 0 W/m2
04:35 49.9 °F 44.6 °F 30.01 in East 3 mph 4 mph 82% 0.00 in 0 W/m2
04:40 50 °F 44.7 °F 30.01 in East 3 mph 3 mph 82% 0.00 in 0 W/m2
04:45 50 °F 44.7 °F 30.01 in ENE 2 mph 3 mph 82% 0.00 in 0 W/m2
04:50 50 °F 44.7 °F 30.01 in NE 2 mph 2 mph 82% 0.00 in 0 W/m2
04:55 50 °F 44.7 °F 30.01 in ENE 2 mph 3 mph 82% 0.00 in 0 W/m2
05:00 50 °F 44.7 °F 30.01 in East 3 mph 3 mph 82% 0.00 in 0 W/m2
05:05 50.1 °F 44.8 °F 30.01 in NE 3 mph 3 mph 82% 0.00 in 0 W/m2
05:10 50.1 °F 44.8 °F 30.01 in ENE 3 mph 3 mph 82% 0.00 in 0 W/m2
05:15 50.1 °F 44.8 °F 30.01 in NE 2 mph 3 mph 82% 0.00 in 0 W/m2
05:20 50 °F 44.7 °F 30.00 in ENE 2 mph 3 mph 82% 0.00 in 0 W/m2
05:25 50 °F 44.7 °F 30.00 in WSW 2 mph 3 mph 82% 0.00 in 0 W/m2
05:30 50 °F 44.7 °F 30.01 in ENE 2 mph 2 mph 82% 0.00 in 0 W/m2
05:35 50 °F 44.7 °F 30.00 in North 3 mph 3 mph 82% 0.00 in 0 W/m2
05:40 50 °F 44.7 °F 30.01 in East 3 mph 3 mph 82% 0.00 in 0 W/m2
05:45 50 °F 44.7 °F 30.01 in NNE 2 mph 3 mph 82% 0.00 in 0 W/m2
05:50 50 °F 45 °F 30.01 in ENE 2 mph 2 mph 83% 0.00 in 0 W/m2
05:55 50.1 °F 45.1 °F 30.01 in East 3 mph 3 mph 83% 0.00 in 0 W/m2
06:00 50 °F 45 °F 30.01 in East 2 mph 4 mph 83% 0.00 in 0 W/m2
06:05 50.1 °F 45.1 °F 30.02 in ENE 2 mph 4 mph 83% 0.00 in 0 W/m2
06:10 50.1 °F 45.1 °F 30.02 in ENE 2 mph 3 mph 83% 0.00 in 0 W/m2
06:15 50.1 °F 45.1 °F 30.02 in ENE 3 mph 3 mph 83% 0.00 in 0 W/m2
06:25 50.1 °F 45.1 °F 30.02 in East 2 mph 4 mph 83% 0.00 in 0 W/m2
06:30 50.2 °F 45.2 °F 30.02 in East 3 mph 5 mph 83% 0.00 in 0 W/m2
06:35 50.1 °F 45.1 °F 30.02 in ENE 3 mph 5 mph 83% 0.00 in 0 W/m2
06:40 50.2 °F 45.6 °F 30.02 in NNE 2 mph 2 mph 84% 0.00 in 0 W/m2
06:45 50.2 °F 45.6 °F 30.02 in ENE 2 mph 3 mph 84% 0.00 in 0 W/m2
06:50 50.1 °F 45.8 °F 30.02 in North 3 mph 3 mph 85% 0.00 in 0 W/m2
06:55 50.2 °F 45.9 °F 30.02 in East 2 mph 3 mph 85% 0.00 in 0 W/m2
07:00 50.1 °F 45.8 °F 30.01 in SE 2 mph 2 mph 85% 0.00 in 0 W/m2
07:05 50 °F 45.7 °F 30.01 in NW 2 mph 2 mph 85% 0.00 in 0 W/m2
07:10 49.9 °F 45.9 °F 30.01 in East 2 mph 2 mph 86% 0.00 in 0 W/m2
07:15 49.9 °F 45.9 °F 30.01 in NW 2 mph 2 mph 86% 0.00 in 0 W/m2
07:20 49.9 °F 45.9 °F 30.01 in WNW 3 mph 3 mph 86% 0.00 in 0 W/m2
07:25 49.9 °F 45.9 °F 30.02 in ESE 3 mph 3 mph 86% 0.00 in 0 W/m2
07:30 49.9 °F 46.2 °F 30.02 in NE 2 mph 3 mph 87% 0.00 in 0 W/m2
07:35 50 °F 46.3 °F 30.02 in ESE 2 mph 5 mph 87% 0.00 in 0 W/m2
07:40 50 °F 46.3 °F 30.02 in ENE 2 mph 5 mph 87% 0.00 in 0 W/m2
07:45 50 °F 46.3 °F 30.02 in ENE 3 mph 5 mph 87% 0.00 in 0 W/m2
07:50 50 °F 46.3 °F 30.02 in NE 3 mph 3 mph 87% 0.00 in 0 W/m2
07:55 50 °F 46.3 °F 30.02 in NE 3 mph 3 mph 87% 0.00 in 0 W/m2
08:00 50 °F 46.3 °F 30.02 in NNE 2 mph 7 mph 87% 0.00 in 0 W/m2
08:05 50 °F 46.6 °F 30.02 in East 2 mph 7 mph 88% 0.00 in 0 W/m2
08:10 50 °F 46.6 °F 30.02 in East 2 mph 3 mph 88% 0.00 in 0 W/m2
08:15 50 °F 46.6 °F 30.02 in NE 2 mph 3 mph 88% 0.00 in 0 W/m2
08:20 50 °F 46.6 °F 30.02 in North 2 mph 2 mph 88% 0.00 in 0 W/m2
08:25 50 °F 46.6 °F 30.02 in ENE 3 mph 3 mph 88% 0.00 in 5 W/m2
08:30 50 °F 46.6 °F 30.03 in East 2 mph 3 mph 88% 0.00 in 5 W/m2
08:35 50 °F 46.6 °F 30.03 in NNW 2 mph 3 mph 88% 0.00 in 9 W/m2
08:40 50 °F 46.9 °F 30.03 in NNE 3 mph 3 mph 89% 0.00 in 12 W/m2
08:45 50 °F 46.9 °F 30.04 in ENE 2 mph 3 mph 89% 0.00 in 12 W/m2
08:50 50 °F 46.9 °F 30.04 in NE 2 mph 3 mph 89% 0.00 in 12 W/m2
08:55 49.9 °F 46.8 °F 30.04 in NE 2 mph 3 mph 89% 0.00 in 16 W/m2
09:00 50 °F 46.9 °F 30.03 in East 2 mph 2 mph 89% 0.00 in 19 W/m2
09:05 49.9 °F 46.8 °F 30.04 in ESE 2 mph 2 mph 89% 0.00 in 16 W/m2
09:10 49.9 °F 46.8 °F 30.04 in East 2 mph 3 mph 89% 0.00 in 16 W/m2
09:15 50 °F 46.9 °F 30.04 in NNW 2 mph 3 mph 89% 0.00 in 16 W/m2
09:20 50.1 °F 47 °F 30.04 in East 2 mph 2 mph 89% 0.00 in 16 W/m2
09:25 50.1 °F 47 °F 30.04 in ENE 2 mph 2 mph 89% 0.00 in 16 W/m2
09:30 50.1 °F 47 °F 30.04 in ESE 2 mph 2 mph 89% 0.00 in 19 W/m2
09:35 50.3 °F 47.2 °F 30.04 in East 2 mph 3 mph 89% 0.00 in 26 W/m2
09:40 50.3 °F 47.2 °F 30.04 in NE 2 mph 2 mph 89% 0.00 in 32 W/m2
09:45 50.3 °F 47.2 °F 30.04 in ENE 2 mph 2 mph 89% 0.00 in 28 W/m2
09:50 50.3 °F 47.2 °F 30.05 in ESE 2 mph 2 mph 89% 0.00 in 30 W/m2
09:55 50.3 °F 47.2 °F 30.05 in ENE 2 mph 2 mph 89% 0.00 in 28 W/m2
10:00 50.3 °F 47.2 °F 30.04 in East 2 mph 3 mph 89% 0.00 in 28 W/m2
10:05 50.4 °F 47.3 °F 30.04 in ENE 2 mph 3 mph 89% 0.00 in 40 W/m2
10:10 50.5 °F 47.4 °F 30.04 in NNE 2 mph 2 mph 89% 0.00 in 53 W/m2
10:15 50.4 °F 47.3 °F 30.04 in East 2 mph 2 mph 89% 0.00 in 39 W/m2
10:20 50.5 °F 47.1 °F 30.04 in NW 2 mph 2 mph 88% 0.00 in 35 W/m2
10:25 50.5 °F 47.4 °F 30.04 in SE 2 mph 2 mph 89% 0.00 in 40 W/m2
10:30 50.6 °F 47.2 °F 30.04 in North 2 mph 2 mph 88% 0.00 in 35 W/m2
10:35 50.6 °F 47.5 °F 30.04 in NE 2 mph 2 mph 89% 0.00 in 44 W/m2
10:40 50.6 °F 47.5 °F 30.04 in East 2 mph 4 mph 89% 0.00 in 47 W/m2
10:45 50.6 °F 47.2 °F 30.04 in NE 2 mph 4 mph 88% 0.00 in 63 W/m2
10:50 50.6 °F 47.2 °F 30.04 in NNE 2 mph 3 mph 88% 0.00 in 63 W/m2
10:55 50.6 °F 47.2 °F 30.04 in NE 2 mph 3 mph 88% 0.00 in 60 W/m2
11:00 50.6 °F 47.2 °F 30.04 in ESE 2 mph 2 mph 88% 0.00 in 53 W/m2
11:05 50.6 °F 47.2 °F 30.04 in ENE 2 mph 2 mph 88% 0.00 in 56 W/m2
11:10 50.7 °F 47.3 °F 30.04 in SE 2 mph 2 mph 88% 0.00 in 58 W/m2
11:15 50.7 °F 47.3 °F 30.04 in NE 2 mph 2 mph 88% 0.00 in 53 W/m2
11:20 50.8 °F 47.4 °F 30.04 in East 2 mph 2 mph 88% 0.00 in 49 W/m2
11:25 50.8 °F 47.4 °F 30.04 in ENE 2 mph 2 mph 88% 0.00 in 51 W/m2
11:30 50.9 °F 47.5 °F 30.04 in ESE 2 mph 2 mph 88% 0.00 in 65 W/m2
11:35 50.9 °F 47.5 °F 30.05 in ESE 1 mph 2 mph 88% 0.00 in 60 W/m2
11:40 50.9 °F 47.5 °F 30.05 in NE 1 mph 1 mph 88% 0.00 in 56 W/m2
Sand Point, Michigan, USA
Compliments of Weather Underground - 2 mb